GAOFEN-8

Last updated on Mon Sep 15 2025 00:02:30 GMT+0000 (Coordinated Universal Time)

1 40701U 15030A 25257.28569572 .00009655 00000+0 28942-3 0 9998 2 40701 97.6952 71.3462 0012577 101.6025 258.6630 15.34639790568974
UTC large
Height (km)
Speed (km/s)
/
Latitude / Longitude
Inclination (degrees)
Orbital Period (minutes)
Azimuth
Elevation
Range (km)
Doppler Factor

Next 0 passes for location: London (51.5072 / 0.1276)

Sorry there are no passes over London.